{"data":{"norad_id":59269,"epoch":"2026-09-21T11:51:34.082208Z","epoch_age_seconds":76365,"freshness":"FRESH","line1":"1 59269U 24050R   26264.49414447  .00000213  00000+0  17448-4 0  9992","line2":"2 59269  53.1639 348.9175 0001205  77.1176 282.9961 15.34393692140562","mean_motion":15.34393692,"eccentricity":0.0001205,"inclination_deg":53.1639,"raan_deg":348.9175,"arg_perigee_deg":77.1176,"mean_anomaly_deg":282.9961,"bstar":1.7448e-5,"rev_number":14056,"period_min":93.848143896045,"perigee_km":461.89766546851,"apogee_km":463.54631248486,"semimajor_km":6840.8589889767,"source":"CELESTRAK","updated_at":"2026-09-22T09:00:48.873484Z"}}